User: anonymous   Login
Location: Unspecified
(0.0000°N, 0.0000°E)
Time: 14:20:10
(UTC+00:00)
Language:

Mayak - Orbit

View from above orbital plane
View from above orbital plane
View from above satellite
View from above satellite

Ground track
Ground track

The orbit data is extracted from the following two-line orbital elements,

1 42830U 17042F   24253.13984836  .00107626  00000-0  37282-2 0  9995
2 42830  97.3710  88.7610 0006552  67.9083 292.2852 15.29382759390864
Epoch (UTC): 09 September 2024 03:21:22
Eccentricity: 0.0006552
inclination: 97.3710°
perigee height: 473 km
apogee height: 482 km
right ascension of ascending node: 88.7610°
argument of perigee: 67.9083°
revolutions per day: 15.29382759
mean anomaly at epoch: 292.2852°
orbit number at epoch: 39086

The dashed part of the orbit path shows where the satellite is in the earth's shadow,  

DLR